This is the latest recevied weather packets stored in our database for station/object DL9CN-10. If no packets are shown the sender has not sent any weather packets the latest 10 day(s).
| Time | Temp. | Humidity | Pressure | Rain* | Wind** | Luminosity | Snow |
|---|---|---|---|---|---|---|---|
| 1777611163 | 11.67° C | 31% | 1026.3 hPa | - | - | - | - |
| 1777610263 | 11.67° C | 31% | 1026.2 hPa | - | - | - | - |
| 1777609367 | 12.22° C | 30% | 1026.5 hPa | - | - | - | - |
| 1777608467 | 12.22° C | 30% | 1026.4 hPa | - | - | - | - |
| 1777607566 | 12.22° C | 30% | 1026.3 hPa | - | - | - | - |
| 1777606666 | 12.22° C | 30% | 1026.3 hPa | - | - | - | - |
| 1777605766 | 12.78° C | 30% | 1026.4 hPa | - | - | - | - |
| 1777604866 | 12.78° C | 29% | 1026.5 hPa | - | - | - | - |
| 1777603966 | 12.78° C | 29% | 1026.6 hPa | - | - | - | - |
| 1777603066 | 13.33° C | 29% | 1026.6 hPa | - | - | - | - |
| 1777602165 | 13.33° C | 29% | 1026.8 hPa | - | - | - | - |
| 1777601265 | 13.89° C | 28% | 1026.7 hPa | - | - | - | - |
| 1777600365 | 13.89° C | 29% | 1026.8 hPa | - | - | - | - |
| 1777599465 | 13.89° C | 28% | 1026.7 hPa | - | - | - | - |
| 1777598564 | 14.44° C | 28% | 1026.6 hPa | - | - | - | - |
| 1777597664 | 14.44° C | 28% | 1026.5 hPa | - | - | - | - |
| 1777596764 | 15° C | 28% | 1026.5 hPa | - | - | - | - |
| 1777595864 | 15° C | 28% | 1026.4 hPa | - | - | - | - |
| 1777594964 | 15.56° C | 27% | 1026.4 hPa | - | - | - | - |
| 1777594064 | 15.56° C | 27% | 1026.3 hPa | - | - | - | - |
| 1777593163 | 15.56° C | 27% | 1026.3 hPa | - | - | - | - |
| 1777592263 | 16.11° C | 27% | 1026.4 hPa | - | - | - | - |
| 1777591363 | 16.11° C | 27% | 1026.3 hPa | - | - | - | - |
| 1777590463 | 16.67° C | 26% | 1026.3 hPa | - | - | - | - |
| 1777589563 | 16.67° C | 26% | 1026.2 hPa | - | - | - | - |
* Rain since midnight (hover to see other rain measurements)
** Current wind speed in m/s (hover to see current wind gust speed)